This is the latest recevied weather packets stored in our database for station/object HG8LXL-2. If no packets are shown the sender has not sent any weather packets the latest 10 day(s).
| Time | Temp. | Humidity | Pressure | Rain* | Wind** | Luminosity | Snow |
|---|---|---|---|---|---|---|---|
| 1788266467 | 33.33° C | 16% | 1014.7 hPa | - | - | - | - |
| 1788266151 | 33.89° C | 15% | 1014.7 hPa | - | - | - | - |
| 1788265852 | 33.33° C | 15% | 1014.8 hPa | - | - | - | - |
| 1788265551 | 33.33° C | 17% | 1014.7 hPa | - | - | - | - |
| 1788265251 | 33.33° C | 16% | 1014.8 hPa | - | - | - | - |
| 1788264951 | 33.33° C | 16% | 1014.8 hPa | - | - | - | - |
| 1788264651 | 33.33° C | 17% | 1014.9 hPa | - | - | - | - |
| 1788264354 | 33.33° C | 16% | 1015 hPa | - | - | - | - |
| 1788264051 | 33.33° C | 16% | 1014.8 hPa | - | - | - | - |
| 1788263751 | 33.33° C | 17% | 1015 hPa | - | - | - | - |
| 1788263451 | 32.78° C | 18% | 1015.1 hPa | - | - | - | - |
| 1788263151 | 32.78° C | 18% | 1015.1 hPa | - | - | - | - |
| 1788262851 | 33.33° C | 18% | 1015 hPa | - | - | - | - |
| 1788262554 | 32.78° C | 18% | 1015.1 hPa | - | - | - | - |
| 1788262251 | 33.33° C | 19% | 1015.1 hPa | - | - | - | - |
| 1788261951 | 32.78° C | 20% | 1015.2 hPa | - | - | - | - |
| 1788261652 | 32.78° C | 20% | 1015.2 hPa | - | - | - | - |
| 1788261360 | 32.78° C | 23% | 1015.2 hPa | - | - | - | - |
| 1788261051 | 32.78° C | 24% | 1015.1 hPa | - | - | - | - |
| 1788260751 | 32.22° C | 22% | 1015.1 hPa | - | - | - | - |
| 1788260466 | 32.22° C | 25% | 1015.2 hPa | - | - | - | - |
| 1788260151 | 32.22° C | 24% | 1015.2 hPa | - | - | - | - |
| 1788259851 | 32.22° C | 24% | 1015.2 hPa | - | - | - | - |
| 1788259559 | 31.67° C | 25% | 1015.3 hPa | - | - | - | - |
| 1788259251 | 31.67° C | 25% | 1015.2 hPa | - | - | - | - |
* Rain since midnight (hover to see other rain measurements)
** Current wind speed in m/s (hover to see current wind gust speed)